Weather History for Carlsbad, NM

Change the Weather History Date:

Tuesday, February 19, 2013

  Actual Average Record
Temperature  
Mean Temperature 42 °F -  
Max Temperature 55 °F 63 °F 86 °F (1986)
Min Temperature 30 °F 34 °F 23 °F (1955)
Degree Days  
Heating Degree Days 22    
Moisture  
Dew Point 27 °F    
Average Humidity 51    
Maximum Humidity 90    
Minimum Humidity 28    
Precipitation  
Precipitation 0.24 in - - ()
Sea Level Pressure  
Sea Level Pressure 29.98 in    
Wind  
Wind Speed 11 mph (SSE)    
Max Wind Speed 25 mph    
Max Gust Speed 34 mph    
Visibility 10 miles    
Events Rain    
Averages and records for this station are not official NWS values.
T = Trace of Precipitation, MM = Missing Value Source: NWS Daily Summary

Daily Weather History Graph

Daily Weather History Graph

Search for Another Location

Airport:

Trip Planner

Search our weather history database for the weather conditions in past years. The results will help you decide how hot, cold, wet, or windy it might be!

Date:

Astronomy

Feb. 19, 2013 Rise Set
Actual Time 6:35 AM MST 5:46 PM MST
Civil Twilight 6:10 AM MST 6:11 PM MST
Nautical Twilight 5:41 AM MST 6:40 PM MST
Astronomical Twilight 5:13 AM MST 7:08 PM MST
Moon 12:30 PM MST (2/19) 1:59 AM MST (2/19)
Length of Visible Light 12h 01m
Length of Day
11h 11m
Waxing Gibbous, 68% of the Moon is Illuminated
Feb 19
Waxing Gibbous
Feb 25
Full
Mar 4
Last Quarter
Mar 11
New
Mar 19
First Quarter

Hourly Weather History & Observations

Time (MST) Temp. Windchill Dew Point Humidity Pressure Visibility Wind Dir Wind Speed Gust Speed Precip Events Conditions
12:53 AM 46.0 °F 41.9 °F 14.0 °F 28% 30.02 in 10.0 mi SE 8.1 mph - N/A   Clear
1:53 AM 39.9 °F 35.8 °F 14.0 °F 35% 30.04 in 10.0 mi SSE 5.8 mph - N/A   Clear
2:53 AM 37.9 °F 33.5 °F 14.0 °F 38% 30.04 in 10.0 mi SE 5.8 mph - N/A   Clear
3:53 AM 37.0 °F 32.4 °F 15.1 °F 41% 30.04 in 10.0 mi SSE 5.8 mph - N/A   Clear
4:53 AM 37.9 °F 32.1 °F 15.1 °F 39% 30.04 in 10.0 mi SE 8.1 mph - N/A   Clear
5:53 AM 30.9 °F 23.5 °F 14.0 °F 50% 30.06 in 10.0 mi SSE 8.1 mph - N/A   Clear
6:53 AM 33.1 °F 26.9 °F 16.0 °F 50% 30.07 in 10.0 mi South 6.9 mph - N/A   Clear
7:53 AM 42.1 °F 37.1 °F 19.0 °F 40% 30.09 in 10.0 mi SSE 8.1 mph - N/A   Clear
8:53 AM 46.9 °F - 23.0 °F 39% 30.08 in 10.0 mi SE 16.1 mph - N/A   Clear
9:53 AM 50.0 °F - 23.0 °F 35% 30.06 in 10.0 mi SSE 16.1 mph 23.0 mph N/A   Clear
11:53 AM 53.1 °F - 23.0 °F 31% 29.99 in 10.0 mi SE 17.3 mph 27.6 mph N/A   Clear
12:53 PM 53.1 °F - 23.0 °F 31% 29.94 in 10.0 mi SSE 18.4 mph 24.2 mph N/A   Clear
1:53 PM 54.0 °F - 24.1 °F 31% 29.91 in 10.0 mi SSE 17.3 mph 25.3 mph N/A   Clear
2:53 PM 53.1 °F - 23.0 °F 31% 29.91 in 7.0 mi SSE 13.8 mph 21.9 mph N/A   Scattered Clouds
3:53 PM 53.1 °F - 26.1 °F 35% 29.90 in 10.0 mi SSE 12.7 mph - N/A   Overcast
5:53 PM 55.0 °F - 41.0 °F 59% 29.93 in 10.0 mi SW 13.8 mph 18.4 mph N/A   Overcast
6:53 PM 51.1 °F - 45.0 °F 80% 29.94 in 10.0 mi SSW 19.6 mph - 0.00 in Rain Light Rain
7:53 PM 48.9 °F - 46.0 °F 90% 29.94 in 8.0 mi SSW 9.2 mph - 0.05 in Rain Rain
8:53 PM 48.0 °F - 44.1 °F 86% 29.93 in 5.0 mi SE 16.1 mph 19.6 mph 0.09 in Rain Rain
9:53 PM 44.1 °F 35.4 °F 41.0 °F 89% 29.90 in 8.0 mi SSE 21.9 mph - 0.09 in Rain Light Rain
10:53 PM 44.1 °F 34.8 °F 39.9 °F 85% 29.85 in 10.0 mi SSE 25.3 mph 34.5 mph 0.01 in   Mostly Cloudy
11:53 PM 44.1 °F 37.4 °F 39.9 °F 85% 29.85 in 10.0 mi South 13.8 mph - N/A   Mostly Cloudy